FW6366 Weather Reports


Display with metric or nautical units.
time (UTC)temp
F
wind
direction
speed
MPH
gust
MPH
rain 1hr
in
rain 24hr
in
rain mn
in
humidity
%
barometer
mb
20260507210601 54 70 0.0 5.0 0.00 0.17 0.00 44 1007.3
20260507210114 54 4 1.0 8.0 0.00 0.17 0.00 46 1007.2
20260507205603 54 0 3.0 11.0 0.00 0.19 0.00 41 1007.1
20260507205101 54 310 3.0 11.0 0.00 0.19 0.00 40 1007.3
20260507204559 54 0 1.0 6.0 0.00 0.19 0.00 41 1007.3
20260507204111 54 0 1.0 7.0 0.00 0.19 0.00 42 1007.3
20260507203559 54 2 1.0 7.0 0.00 0.19 0.00 49 1007.3
20260507203100 54 173 3.0 8.0 0.00 0.19 0.00 43 1007.3
20260507202601 54 188 3.0 8.0 0.00 0.19 0.00 42 1007.3
20260507202058 55 293 4.0 10.0 0.00 0.19 0.00 39 1007.3
20260507201601 55 0 3.0 10.0 0.00 0.19 0.00 40 1007.3
20260507201059 55 70 2.0 11.0 0.00 0.19 0.00 43 1007.2
20260507200602 55 0 1.0 11.0 0.00 0.19 0.00 43 1007.3
20260507200106 56 52 4.0 11.0 0.00 0.19 0.00 41 1007.3
20260507195600 55 228 1.0 13.0 0.00 0.30 0.00 44 1007.4
20260507195101 56 0 2.0 16.0 0.00 0.30 0.00 40 1007.5
20260507194601 56 22 6.0 16.0 0.00 0.30 0.00 44 1007.6
20260507194059 56 146 3.0 8.0 0.00 0.30 0.00 42 1007.5
20260507193559 55 173 2.0 12.0 0.00 0.30 0.00 43 1007.5
20260507193059 56 20 1.0 12.0 0.00 0.30 0.00 42 1007.6
20260507192600 55 112 7.0 12.0 0.00 0.30 0.00 42 1007.5
20260507192059 55 205 5.0 10.0 0.00 0.30 0.00 39 1007.6
20260507191604 55 0 0.0 12.0 0.00 0.30 0.00 43 1007.7
20260507191100 54 0 5.0 12.0 0.00 0.30 0.00 44 1007.8
20260507190558 55 1 1.0 10.0 0.00 0.30 0.00 44 1007.8
20260507190108 56 75 4.0 10.0 0.00 0.30 0.00 42 1007.7
20260507185559 55 200 1.0 7.0 0.00 0.42 0.00 46 1007.9
20260507185058 56 353 1.0 13.0 0.00 0.42 0.00 44 1007.9
20260507184601 55 154 5.0 13.0 0.00 0.42 0.00 41 1007.8
20260507184059 55 0 3.0 10.0 0.00 0.42 0.00 40 1007.9
20260507183559 56 110 3.0 7.0 0.00 0.42 0.00 41 1007.9
20260507183115 55 130 4.0 7.0 0.00 0.42 0.00 44 1008.1
20260507182600 55 203 2.0 13.0 0.00 0.42 0.00 41 1008.1
20260507182102 54 116 3.0 19.0 0.00 0.42 0.00 42 1008.1
20260507181601 54 340 5.0 19.0 0.00 0.42 0.00 41 1008.3
20260507181101 55 288 3.0 17.0 0.00 0.42 0.00 43 1008.3
20260507180600 55 335 7.0 15.0 0.00 0.42 0.00 43 1008.1
20260507180105 55 303 4.0 14.0 0.00 0.42 0.00 43 1008.2
20260507175559 55 288 2.0 12.0 0.00 0.58 0.00 43 1008.5
20260507175059 55 23 3.0 12.0 0.00 0.58 0.00 43 1008.2
20260507174605 57 338 2.0 9.0 0.00 0.58 0.00 46 1008.1
20260507174058 55 65 4.0 10.0 0.00 0.58 0.00 44 1008.1
20260507173600 54 37 3.0 10.0 0.00 0.58 0.00 44 1008.2
20260507173120 55 64 5.0 10.0 0.00 0.58 0.00 48 1008.1
20260507172600 55 4 2.0 10.0 0.00 0.58 0.00 42 1008.1
20260507172059 55 0 1.0 10.0 0.00 0.58 0.00 50 1008.2
20260507171558 55 72 3.0 10.0 0.00 0.58 0.00 45 1008.3
20260507171100 55 63 3.0 10.0 0.00 0.58 0.00 44 1008.3
20260507170600 53 9 5.0 12.0 0.00 0.58 0.00 48 1008.4
20260507170100 54 25 4.0 12.0 0.00 0.58 0.00 44 1008.6
20260507165600 56 90 3.0 12.0 0.00 0.72 0.00 47 1008.6
20260507165105 55 203 4.0 11.0 0.00 0.72 0.00 47 1008.9
20260507164633 54 0 3.0 11.0 0.00 0.72 0.00 48 1008.9
20260507164100 54 50 2.0 9.0 0.00 0.72 0.00 46 1008.9
20260507163559 53 188 4.0 9.0 0.00 0.72 0.00 44 1009.1
20260507163100 54 217 3.0 14.0 0.00 0.72 0.00 51 1009.2
20260507162559 53 229 6.0 14.0 0.00 0.72 0.00 46 1009.2
20260507162100 53 68 1.0 14.0 0.00 0.72 0.00 48 1009.2
20260507161604 53 356 1.0 14.0 0.00 0.72 0.00 49 1009.4
20260507161059 53 236 4.0 14.0 0.00 0.72 0.00 44 1009.3
20260507160559 53 291 5.0 13.0 0.00 0.72 0.00 48 1009.3
20260507155559 53 25 1.0 10.0 0.00 0.88 0.00 47 1009.6
20260507155059 52 240 3.0 12.0 0.00 0.88 0.00 45 1009.7
20260507154600 52 270 3.0 16.0 0.00 0.88 0.00 44 1009.6
20260507154100 52 44 6.0 16.0 0.00 0.88 0.00 44 1009.8
20260507153559 52 34 8.0 16.0 0.00 0.88 0.00 48 1009.8
20260507153059 52 64 5.0 13.0 0.00 0.88 0.00 51 1009.8
20260507152602 52 240 6.0 13.0 0.00 0.88 0.00 44 1010.1
20260507152100 51 90 3.0 15.0 0.00 0.88 0.00 49 1010.0
20260507151557 51 174 3.0 15.0 0.00 0.88 0.00 44 1010.0
20260507151059 51 191 3.0 10.0 0.00 0.88 0.00 51 1010.0
20260507150600 51 321 4.0 11.0 0.00 0.88 0.00 54 1010.1
20260507150059 51 34 2.0 13.0 0.00 0.88 0.00 55 1009.9
20260507145600 51 51 6.0 13.0 0.00 0.98 0.00 53 1009.9
20260507145101 51 44 6.0 16.0 0.00 0.98 0.00 54 1010.0
20260507144602 51 36 7.0 16.0 0.00 0.98 0.00 53 1009.8
20260507144100 50 88 7.0 15.0 0.00 0.98 0.00 53 1010.0
20260507143558 50 32 7.0 14.0 0.00 0.98 0.00 53 1009.8
20260507143119 50 41 3.0 12.0 0.00 0.98 0.00 52 1010.1
20260507142559 50 19 1.0 7.0 0.00 0.98 0.00 57 1010.1
20260507142059 49 189 3.0 7.0 0.00 0.98 0.00 55 1010.0
20260507142036 49 314 2.0 7.0 0.00 0.98 0.00 57 1010.1
20260507141059 50 233 2.0 13.0 0.00 0.98 0.00 56 1010.2
20260507140559 49 0 1.0 13.0 0.00 0.98 0.00 59 1010.0
20260507140058 48 50 4.0 13.0 0.00 0.98 0.00 54 1010.1
20260507135559 49 300 3.0 9.0 0.00 1.04 0.00 55 1010.0
20260507135059 48 7 4.0 12.0 0.00 1.04 0.00 57 1010.1
20260507134603 48 0 4.0 12.0 0.00 1.04 0.00 55 1010.1
20260507134057 49 230 2.0 12.0 0.00 1.04 0.00 57 1010.1
20260507133600 49 326 6.0 12.0 0.00 1.04 0.00 65 1010.1
20260507133103 48 86 2.0 8.0 0.00 1.04 0.00 62 1010.1
20260507132559 48 186 2.0 8.0 0.00 1.04 0.00 63 1010.2
20260507132101 48 105 3.0 7.0 0.00 1.04 0.00 59 1010.0
20260507131605 48 85 3.0 7.0 0.00 1.04 0.00 66 1010.1
20260507131103 48 356 2.0 9.0 0.00 1.04 0.00 67 1010.1
20260507130600 47 194 2.0 9.0 0.00 1.04 0.00 65 1010.0
20260507125559 47 325 1.0 7.0 0.00 1.08 0.00 67 1009.9
20260507125059 47 0 2.0 6.0 0.00 1.08 0.00 70 1009.9
20260507124605 47 196 2.0 6.0 0.00 1.08 0.00 69 1009.8
20260507124059 47 170 2.0 6.0 0.00 1.08 0.00 71 1009.9
20260507123600 47 0 1.0 8.0 0.00 1.08 0.00 76 1009.7
20260507123057 46 0 0.0 9.0 0.00 1.08 0.00 75 1009.8
20260507122557 46 335 3.0 9.0 0.00 1.08 0.00 74 1009.7
20260507122059 47 192 3.0 7.0 0.00 1.08 0.00 76 1009.6
20260507121559 47 131 3.0 10.0 0.00 1.08 0.00 77 1009.6
20260507121100 46 0 4.0 10.0 0.00 1.08 0.00 78 1009.6
20260507120557 47 240 2.0 8.0 0.00 1.08 0.00 83 1009.5
20260507120100 46 202 3.0 8.0 0.00 1.08 0.00 86 1009.5
20260507115601 46 160 4.0 8.0 0.00 1.08 0.00 89 1009.5
20260507115100 46 160 1.0 7.0 0.00 1.08 0.00 92 1009.5
20260507114610 46 231 2.0 7.0 0.00 1.08 0.00 95 1009.4
20260507114058 45 0 2.0 6.0 0.00 1.08 0.00 96 1009.3
20260507113602 45 180 3.0 6.0 0.00 1.08 0.00 97 1009.4
20260507113129 44 174 1.0 4.0 0.00 1.08 0.00 97 1009.3
20260507112559 44 0 0.0 3.0 0.00 1.08 0.00 97 1009.2
20260507112100 43 243 0.0 3.0 0.00 1.08 0.00 97 1009.4
20260507111559 43 0 1.0 5.0 0.00 1.08 0.00 97 1009.3
20260507111059 43 188 1.0 5.0 0.00 1.08 0.00 97 1009.3
20260507110559 43 333 2.0 5.0 0.00 1.08 0.00 97 1009.3
20260507110059 44 0 0.0 2.0 0.00 1.08 0.00 97 1009.0
20260507105559 44 91 0.0 2.0 0.00 1.08 0.00 97 1009.0
20260507105059 44 321 0.0 2.0 0.00 1.08 0.00 97 1009.0
20260507104559 44 0 0.0 2.0 0.00 1.08 0.00 97 1009.0
20260507104100 44 0 0.0 2.0 0.00 1.08 0.00 97 1008.8
20260507103600 44 0 0.0 2.0 0.00 1.08 0.00 97 1009.0
20260507103059 43 0 0.0 1.0 0.00 1.08 0.00 97 1009.1
20260507102558 43 0 0.0 1.0 0.00 1.08 0.00 97 1008.9
20260507102059 43 0 0.0 1.0 0.00 1.08 0.00 97 1008.7
20260507101557 43 0 0.0 1.0 0.00 1.08 0.00 97 1008.6
20260507101058 43 0 0.0 1.0 0.00 1.08 0.00 97 1008.5
20260507100601 43 0 0.0 2.0 0.00 1.08 0.00 97 1008.6
20260507100121 43 0 0.0 2.0 0.00 1.08 0.00 97 1008.7
20260507095559 43 0 0.0 2.0 0.00 1.08 0.00 97 1008.7
20260507095100 43 0 0.0 1.0 0.00 1.08 0.00 97 1008.8
20260507094607 43 0 0.0 1.0 0.00 1.08 0.00 97 1008.6
20260507094059 43 0 0.0 1.0 0.00 1.08 0.00 97 1008.6
20260507093559 43 0 0.0 0.0 0.00 1.08 0.00 97 1008.7
20260507093058 43 0 0.0 1.0 0.00 1.08 0.00 97 1008.7
20260507092559 43 0 0.0 1.0 0.00 1.08 0.00 97 1008.8
20260507092058 43 0 0.0 0.0 0.00 1.08 0.00 97 1008.9
20260507091635 43 0 0.0 0.0 0.00 1.08 0.00 97 1008.8
20260507091101 43 0 0.0 2.0 0.00 1.08 0.00 97 1009.0
20260507090559 43 0 0.0 2.0 0.00 1.08 0.00 97 1008.9
20260507090058 43 0 0.0 2.0 0.00 1.08 0.00 97 1008.9
20260507085559 43 0 0.0 2.0 0.00 1.08 0.00 97 1008.8
20260507085058 43 294 0.0 2.0 0.00 1.08 0.00 97 1009.0
20260507084610 43 181 0.0 2.0 0.00 1.08 0.00 97 1009.1
20260507084100 42 164 0.0 1.0 0.00 1.08 0.00 97 1009.1
20260507083558 42 0 0.0 1.0 0.00 1.08 0.00 97 1009.3
20260507083057 42 0 0.0 1.0 0.00 1.08 0.00 97 1009.2
20260507082600 42 0 0.0 1.0 0.00 1.08 0.00 97 1009.2
20260507082058 42 0 0.0 1.0 0.00 1.08 0.00 97 1009.1
20260507081602 42 0 0.0 1.0 0.00 1.08 0.00 97 1009.1
20260507081057 42 311 0.0 1.0 0.00 1.08 0.00 97 1009.1
20260507080600 42 0 0.0 2.0 0.00 1.08 0.00 97 1009.1
20260507080100 42 0 0.0 2.0 0.00 1.08 0.00 97 1009.2
20260507075558 42 51 0.0 2.0 0.00 1.08 0.00 97 1009.2
20260507075059 42 0 0.0 2.0 0.00 1.08 0.00 97 1009.2
20260507074600 42 0 0.0 2.0 0.00 1.08 0.00 97 1009.2
20260507074101 42 0 0.0 1.0 0.00 1.08 0.00 97 1009.2
20260507073602 42 0 0.0 0.0 0.00 1.08 0.00 97 1009.2
20260507073102 42 0 0.0 2.0 0.00 1.08 0.00 97 1009.1
20260507072600 42 0 0.0 2.0 0.00 1.08 0.00 97 1009.2
20260507072057 42 0 0.0 2.0 0.00 1.08 0.00 97 1009.1
20260507071557 42 0 0.0 2.0 0.00 1.08 0.00 97 1008.9
20260507071059 42 0 0.0 2.0 0.00 1.08 0.00 97 1008.9
20260507070603 42 296 0.0 1.0 0.00 1.08 0.00 97 1008.7
20260507070104 42 0 0.0 1.0 0.00 1.08 0.00 97 1008.5
20260507065600 43 0 0.0 1.0 0.00 1.08 0.00 97 1008.9
20260507065059 43 0 0.0 0.0 0.00 1.08 0.00 97 1008.8
20260507064559 43 0 0.0 0.0 0.00 1.08 0.00 97 1008.6
20260507064059 43 0 0.0 0.0 0.00 1.08 0.00 97 1008.6
20260507063559 43 0 0.0 0.0 0.00 1.08 0.00 97 1008.5
20260507063059 43 0 0.0 0.0 0.00 1.08 0.00 97 1008.6
20260507062559 43 0 0.0 0.0 0.00 1.08 0.00 97 1008.7
20260507062058 43 0 0.0 2.0 0.00 1.08 0.00 97 1008.8
20260507061558 43 0 0.0 2.0 0.00 1.08 0.00 97 1008.8
20260507061057 43 322 0.0 2.0 0.00 1.08 0.00 97 1008.9
20260507060602 43 333 0.0 2.0 0.00 1.08 0.00 97 1008.8
20260507060104 43 0 0.0 2.0 0.00 1.08 0.00 97 1008.7
20260507055558 43 314 0.0 2.0 0.00 1.09 0.00 97 1008.7
20260507055059 43 0 0.0 2.0 0.00 1.09 0.00 97 1008.7
20260507054600 43 0 1.0 3.0 0.00 1.09 0.00 97 1009.0
20260507054103 43 285 0.0 3.0 0.00 1.09 0.00 97 1008.9
20260507053600 43 311 0.0 2.0 0.00 1.09 0.00 97 1009.0
20260507053059 43 343 0.0 1.0 0.00 1.09 0.00 97 1008.9
20260507052602 43 0 0.0 2.0 0.00 1.09 0.00 97 1009.4
20260507052059 43 0 0.0 2.0 0.00 1.09 0.00 97 1009.5
20260507051559 43 0 0.0 3.0 0.00 1.09 0.00 97 1009.6
20260507051058 43 0 0.0 3.0 0.00 1.09 0.00 97 1009.5
20260507050601 43 32 0.0 3.0 0.00 1.09 0.00 97 1009.5
20260507045601 43 0 0.0 2.0 0.00 1.13 0.00 97 1009.5
20260507045058 42 356 0.0 2.0 0.00 1.13 0.00 97 1009.3
20260507044616 43 0 0.0 2.0 0.00 1.13 0.00 97 1009.3
20260507044059 43 0 0.0 2.0 0.00 1.13 0.00 97 1009.3
20260507043559 42 0 0.0 2.0 0.00 1.13 0.00 97 1009.5
20260507043109 42 0 0.0 2.0 0.00 1.13 0.00 97 1009.5
20260507042600 42 0 0.0 0.0 0.00 1.13 0.00 97 1009.2
20260507042059 42 0 0.0 1.0 0.00 1.13 0.00 97 1009.0
20260507041607 43 0 0.0 1.0 0.01 1.13 0.00 97 1009.0
20260507041100 43 0 0.0 1.0 0.01 1.13 0.00 97 1008.7
20260507040600 43 0 0.0 1.0 0.01 1.13 0.00 97 1008.7
20260507035558 43 0 0.0 1.0 0.01 1.13 1.13 97 1008.8
20260507035058 43 0 0.0 0.0 0.01 1.13 1.13 97 1009.2
20260507034559 43 0 0.0 0.0 0.01 1.13 1.13 97 1009.1
20260507034059 43 0 0.0 2.0 0.01 1.13 1.13 97 1009.2
20260507033601 43 0 0.0 2.0 0.01 1.13 1.13 97 1009.1
20260507033059 43 321 0.0 1.0 0.01 1.13 1.13 97 1009.0
20260507032601 43 0 0.0 0.0 0.01 1.13 1.13 97 1009.0
20260507032059 43 0 0.0 0.0 0.01 1.13 1.13 97 1009.1
20260507031558 43 0 0.0 0.0 0.00 1.12 1.12 97 1009.3
20260507031101 43 0 0.0 0.0 0.00 1.12 1.12 97 1009.4
20260507030558 43 0 0.0 0.0 0.00 1.12 1.12 97 1009.3
20260507030100 43 0 0.0 0.0 0.00 1.12 1.12 97 1009.5
20260507025558 43 0 0.0 0.0 0.00 1.12 1.12 97 1009.5
20260507025100 43 0 0.0 0.0 0.01 1.12 1.12 97 1009.5
20260507024600 44 0 0.0 0.0 0.01 1.12 1.12 97 1009.5
20260507024058 43 0 0.0 0.0 0.01 1.12 1.12 97 1009.6
20260507023602 43 0 0.0 0.0 0.02 1.12 1.12 97 1009.6
20260507023110 44 0 0.0 0.0 0.02 1.12 1.12 97 1009.8
20260507022559 44 0 0.0 0.0 0.02 1.12 1.12 97 1009.7
20260507022100 44 0 0.0 0.0 0.02 1.12 1.12 97 1009.7
20260507021557 44 0 0.0 0.0 0.02 1.12 1.12 97 1009.7
20260507021058 44 0 0.0 0.0 0.03 1.12 1.12 97 1009.8
20260507020600 44 0 0.0 1.0 0.03 1.12 1.12 97 1009.8
20260507020104 44 0 0.0 1.0 0.03 1.12 1.12 97 1009.8
20260507015558 44 0 0.0 1.0 0.04 1.12 1.12 97 1009.7
20260507015058 44 0 0.0 0.0 0.03 1.11 1.11 96 1009.7
20260507014558 44 0 0.0 0.0 0.04 1.11 1.11 97 1009.8
20260507014058 44 0 0.0 0.0 0.04 1.11 1.11 96 1009.8
20260507013600 44 0 0.0 0.0 0.03 1.10 1.10 96 1009.8
20260507013057 43 0 0.0 0.0 0.03 1.10 1.10 96 1009.7
20260507012558 43 0 0.0 0.0 0.03 1.10 1.10 96 1009.6
20260507012058 43 0 0.0 0.0 0.03 1.10 1.10 96 1009.6
20260507011558 44 0 0.0 1.0 0.04 1.10 1.10 96 1009.5
20260507011057 43 0 0.0 1.0 0.03 1.09 1.09 96 1009.7
20260507010557 44 0 0.0 0.0 0.04 1.09 1.09 96 1009.6
20260507005559 44 0 0.0 1.0 0.05 1.09 1.08 96 1009.6
20260507005101 44 29 0.0 1.0 0.05 1.09 1.08 96 1009.4
20260507004601 43 0 0.0 1.0 0.05 1.08 1.07 96 1009.4
20260507004101 44 0 0.0 1.0 0.05 1.08 1.07 96 1009.5
20260507003558 44 0 0.0 1.0 0.05 1.08 1.07 96 1009.4
20260507003116 44 0 0.0 1.0 0.05 1.08 1.07 96 1009.1
20260507002558 44 0 0.0 0.0 0.06 1.08 1.07 96 1009.0
20260507002103 44 0 0.0 1.0 0.06 1.08 1.07 96 1008.9
20260507001616 44 0 0.0 2.0 0.05 1.07 1.05 96 1008.9
20260507001101 44 30 0.0 2.0 0.05 1.07 1.05 96 1008.8
20260507000606 44 354 0.0 2.0 0.04 1.05 1.04 96 1008.8
20260506235604 44 0 0.0 1.0 0.02 1.04 1.03 96 1008.6
20260506235101 44 0 0.0 2.0 0.02 1.04 1.03 96 1008.8
20260506234603 44 0 0.0 4.0 0.01 1.03 1.02 96 1008.7
20260506234059 44 0 0.0 4.0 0.02 1.03 1.02 96 1008.5
20260506233602 44 7 0.0 5.0 0.02 1.03 1.02 96 1008.3
20260506233102 44 0 1.0 5.0 0.02 1.03 1.02 96 1008.2
20260506232558 44 54 2.0 5.0 0.01 1.02 1.01 96 1008.0
20260506232058 44 61 1.0 7.0 0.02 1.02 1.01 96 1007.9
20260506231607 44 53 3.0 7.0 0.02 1.02 1.01 96 1007.9
20260506231102 44 49 0.0 4.0 0.03 1.02 1.01 96 1007.9
20260506230602 45 0 1.0 4.0 0.04 1.02 1.01 96 1007.6
20260506230115 45 41 1.0 4.0 0.04 1.02 1.01 96 1007.4
20260506225603 45 14 1.0 4.0 0.04 1.02 1.01 96 1007.4
20260506225103 45 0 0.0 5.0 0.04 1.02 1.01 96 1007.5
20260506224559 45 56 0.0 6.0 0.04 1.02 1.01 96 1007.5
20260506224102 45 0 1.0 7.0 0.03 1.01 1.00 96 1007.5
20260506223601 45 0 1.0 7.0 0.03 1.01 1.00 96 1007.4
20260506223104 45 29 1.0 7.0 0.03 1.01 1.00 96 1007.4
20260506222600 45 50 2.0 5.0 0.03 1.01 1.00 96 1007.4
20260506222101 45 4 0.0 4.0 0.02 1.00 0.99 96 1007.1
20260506221612 45 45 0.0 4.0 0.03 1.00 0.99 96 1007.2
20260506221058 45 0 1.0 4.0 0.02 0.99 0.98 96 1007.2
20260506220600 45 0 0.0 7.0 0.01 0.98 0.97 96 1007.2
20260506215602 45 59 2.0 8.0 0.01 0.98 0.97 96 1007.2
20260506215100 45 51 2.0 8.0 0.02 0.98 0.97 96 1007.0
20260506214559 45 340 1.0 4.0 0.02 0.98 0.97 96 1006.9
20260506214058 45 53 0.0 3.0 0.02 0.98 0.97 96 1006.9
20260506213559 45 0 0.0 4.0 0.02 0.98 0.97 96 1006.9
20260506213103 45 0 0.0 4.0 0.02 0.98 0.97 96 1006.7
20260506212600 45 15 0.0 4.0 0.02 0.98 0.97 96 1006.7
20260506212100 46 0 0.0 4.0 0.02 0.98 0.97 96 1006.6
20260506211559 46 19 0.0 3.0 0.01 0.97 0.96 96 1006.6
20260506211059 46 55 0.0 3.0 0.01 0.97 0.96 96 1006.6